Wind_Speed
19 19 19 19 19 19 19 20 20 19 19 19 19 18 17 17 17 17 18 18 19 19 18 18 18 18 18 18 19 19 19 19 20 19 18 18 19 19
21 21 20 20 20 20 20 21 21 20 20 19 19 17 18 18 18 18 18 18 18 19 18 19 19 19 20 20 20 20 19 19 19 19 19 18 18 17
22 22 21 22 22 22 21 21 21 21 20 20 20 19 18 19 19 19 19 19 19 19 19 19 19 19 19 19 19 19 19 19 19 18 18 18 18 18
22 22 22 23 23 23 22 22 22 21 21 20 20 20 20 20 20 21 21 20 20 20 20 21 21 21 21 21 20 20 20 20 19 19 19 18 18 18
23 23 22 23 23 23 23 23 23 22 22 21 21 21 21 22 22 22 22 22 22 22 22 23 23 23 22 22 21 21 21 20 20 20 20 19 19 19
24 24 23 24 24 24 23 23 22 22 22 22 22 22 23 23 23 23 23 23 23 23 22 23 23 23 23 22 22 22 22 22 22 21 21 21 21 21
25 24 24 24 24 24 23 23 23 23 23 23 23 23 24 24 24 25 25 24 24 24 24 24 24 23 22 23 23 23 23 23 23 22 22 22 23 23
25 24 23 23 23 23 23 23 24 24 23 23 24 24 24 25 25 25 25 25 25 25 25 24 24 23 23 23 23 23 23 24 24 24 24 24 24 24
25 24 23 23 23 24 24 24 24 24 24 25 25 25 25 25 26 26 26 26 25 25 26 25 24 24 23 23 23 24 24 23 24 25 25 25 25 26
24 24 24 23 23 24 24 24 25 25 25 25 25 25 25 25 26 26 26 26 26 26 26 26 24 24 24 24 24 23 24 26 26 26 26 26 26 26
25 24 25 25 25 25 25 26 26 26 26 25 26 26 27 26 26 26 26 26 26 26 26 26 25 25 25 25 25 25 25 26 26 26 27 27 26 27
26 26 26 26 26 26 26 26 26 26 26 26 27 27 27 27 26 26 26 27 26 25 25 25 25 25 25 25 25 25 25 25 26 27 27 27 28 28
27 27 27 27 26 26 26 27 27 27 27 27 28 28 28 28 27 27 27 26 26 25 25 25 25 25 25 25 25 25 26 26 26 26 27 28 28 28
26 26 26 26 26 27 27 27 28 27 27 27 27 28 27 27 27 27 27 27 26 26 26 26 25 25 25 25 25 25 26 27 27 27 27 27 28 29
24 24 25 25 25 26 26 27 26 26 27 27 27 27 27 26 26 27 27 27 26 26 26 25 25 25 25 25 25 25 26 27 28 28 27 27 27 26
24 24 24 25 25 25 25 25 26 26 26 26 26 26 26 26 27 27 27 26 26 25 24 24 24 25 25 26 26 26 26 26 27 27 27 26 27 27
24 25 25 24 25 25 25 25 25 26 26 25 25 25 25 26 26 26 26 25 25 25 25 25 25 25 25 26 26 26 25 25 25 25 26 26 27 27
25 25 25 25 25 25 26 26 26 26 25 25 25 26 26 26 26 26 26 26 25 26 25 25 25 25 24 25 25 24 24 24 25 25 26 27 27 27
26 26 26 25 25 25 26 26 26 26 26 26 26 26 25 25 25 26 25 25 25 25 25 25 25 25 24 24 23 24 24 24 24 25 26 27 27 27
26 25 25 25 25 25 26 26 26 26 25 25 25 25 25 25 25 25 25 25 25 25 25 25 25 25 25 24 24 25 25 25 25 25 25 26 26 26
25 24 24 24 24 25 25 25 25 25 25 24 24 24 24 25 25 25 25 25 25 24 24 24 24 24 24 24 24 25 26 27 26 26 26 26 25 26
24 24 23 23 23 24 25 25 24 23 23 22 23 23 23 24 24 24 24 24 24 24 24 24 24 24 24 25 25 26 26 26 26 26 26 26 26 26
23 24 23 23 23 24 24 23 23 22 21 22 22 23 23 23 24 23 23 23 23 23 23 24 23 24 24 25 26 26 26 26 26 26 27 27 27 27
Wind_Direction
291 293 293 290 289 292 291 290 292 293 292 293 291 291 290 291 295 293 291 288 285 284 284 283 282 282 281 278 275 273 273 272 272 274 274 273 272 272
288 289 290 289 290 292 291 289 291 292 293 292 289 291 292 292 292 295 291 287 286 284 283 283 283 280 278 276 274 273 272 272 274 274 272 272 272 272
287 287 288 288 288 290 290 289 289 291 291 289 289 290 290 292 290 289 291 289 286 286 283 281 281 279 276 274 275 275 276 275 276 275 272 272 274 272
287 287 286 287 287 287 290 290 289 289 289 288 288 288 289 291 292 289 288 289 287 283 282 282 280 280 278 277 277 277 277 276 275 273 272 272 271 272
287 287 287 287 287 286 287 288 289 288 287 286 285 286 288 290 291 291 289 288 287 285 282 282 281 281 279 278 276 275 275 273 272 272 272 271 271 272
288 286 286 287 286 285 285 286 287 287 286 285 284 285 286 289 291 292 290 288 286 286 284 282 282 280 277 276 275 273 272 272 271 270 270 272 272 272
289 287 287 287 286 285 285 285 286 286 285 285 285 286 287 288 290 290 290 288 285 284 284 283 283 281 277 276 274 273 271 270 270 271 271 272 273 272
289 288 286 285 285 285 284 284 285 286 285 285 286 287 288 288 289 289 289 289 287 284 284 284 282 279 279 278 273 271 271 270 271 271 272 273 272 273
287 287 287 285 285 285 284 283 284 284 285 285 286 287 288 288 289 290 291 292 290 287 284 282 280 278 276 275 275 273 271 270 272 272 272 273 273 273
287 286 289 285 286 287 285 284 284 284 285 286 286 286 287 288 289 290 290 290 289 288 284 281 278 275 274 272 272 271 274 275 274 272 272 274 274 274
285 285 286 285 285 285 284 282 282 283 285 286 286 286 286 287 287 287 287 289 290 288 284 281 277 275 273 272 272 272 274 276 276 275 274 274 274 274
283 284 284 283 283 283 284 283 282 283 286 287 286 286 286 286 285 285 287 288 288 287 285 282 279 275 273 273 273 272 273 273 274 275 274 273 274 275
284 283 283 283 283 283 283 283 282 283 284 285 285 285 286 286 286 286 287 288 289 289 288 284 282 279 276 273 272 273 274 274 274 274 273 273 274 275
286 285 285 285 284 284 285 285 284 283 283 284 284 284 286 286 286 287 288 288 288 288 288 288 285 282 278 276 274 275 275 275 275 274 274 275 275 276
289 287 286 286 286 288 289 289 288 286 287 286 285 286 286 287 288 288 289 288 288 287 286 286 285 283 280 278 276 276 277 276 275 274 274 276 276 277
289 289 287 287 287 288 288 288 289 287 286 286 284 284 285 285 286 287 287 286 286 286 286 285 283 282 280 278 278 279 279 277 277 277 275 275 276 275
289 288 286 285 285 286 286 287 288 289 287 286 286 286 286 287 287 286 286 286 286 286 284 282 282 281 280 279 279 280 280 279 279 279 278 277 277 275
286 286 285 284 285 287 287 287 288 289 286 285 286 288 288 289 288 287 287 286 286 287 285 283 281 281 281 280 280 281 281 280 280 279 277 277 277 277
285 286 285 285 286 286 287 288 289 290 288 286 287 288 288 288 288 288 287 287 288 288 286 285 283 281 280 280 281 283 283 281 281 280 278 277 278 278
286 284 285 285 286 287 288 289 290 291 290 288 286 286 287 288 288 287 287 287 287 288 287 285 284 281 279 280 280 281 282 282 282 282 279 277 277 277
285 284 284 286 287 288 288 288 289 291 289 288 287 285 286 288 289 288 288 287 287 288 287 286 285 283 281 280 279 280 281 281 281 281 279 278 278 278
286 285 287 288 289 290 290 289 290 291 290 289 289 287 285 286 288 290 288 287 288 288 288 287 285 284 283 282 281 280 280 279 279 279 278 278 278 277
287 286 285 286 288 290 292 291 291 291 290 290 291 289 287 288 289 291 291 288 288 289 288 288 287 286 285 284 284 283 282 279 277 277 278 278 278 277
Height
5857 5856 5855 5855 5854 5853 5852 5851 5851 5850 5849 5848 5847 5846 5846 5845 5844 5843 5842 5841 5840 5840 5839 5838 5838 5837 5837 5836 5836 5835 5835 5835 5835 5835 5835 5835 5835 5835
5852 5851 5850 5850 5849 5848 5847 5846 5845 5844 5844 5843 5842 5842 5841 5840 5839 5838 5837 5836 5835 5834 5834 5833 5832 5832 5831 5831 5830 5830 5830 5830 5829 5829 5830 5830 5830 5830
5846 5845 5845 5844 5843 5842 5841 5840 5839 5839 5838 5837 5837 5836 5835 5835 5834 5832 5831 5830 5830 5829 5828 5827 5826 5826 5825 5825 5824 5824 5824 5824 5824 5824 5824 5824 5825 5825
5840 5839 5838 5838 5837 5836 5835 5834 5833 5833 5832 5832 5831 5830 5830 5829 5828 5827 5825 5825 5824 5823 5822 5821 5821 5820 5820 5819 5819 5819 5819 5819 5818 5818 5819 5819 5819 5820
5834 5832 5832 5831 5831 5830 5829 5828 5828 5827 5826 5826 5825 5825 5824 5823 5822 5821 5820 5819 5818 5816 5816 5815 5814 5814 5813 5813 5813 5813 5813 5813 5813 5813 5813 5813 5814 5814
5827 5826 5826 5825 5824 5823 5823 5822 5821 5821 5820 5819 5819 5818 5818 5817 5816 5815 5814 5812 5811 5810 5809 5808 5808 5807 5807 5807 5807 5807 5807 5807 5807 5807 5807 5807 5808 5808
5820 5820 5819 5818 5818 5817 5816 5816 5815 5814 5813 5813 5812 5812 5811 5810 5809 5808 5807 5805 5804 5803 5802 5801 5801 5800 5800 5800 5800 5800 5800 5800 5800 5801 5801 5801 5801 5801
5814 5813 5812 5812 5811 5810 5810 5809 5809 5808 5807 5806 5806 5805 5804 5803 5801 5800 5799 5798 5797 5797 5795 5794 5793 5793 5793 5793 5793 5793 5793 5793 5793 5794 5794 5794 5794 5794
5806 5806 5805 5805 5804 5804 5803 5802 5802 5801 5800 5800 5799 5798 5797 5796 5794 5793 5791 5790 5789 5788 5787 5787 5786 5786 5786 5786 5786 5786 5786 5786 5786 5786 5787 5787 5787 5787
5799 5799 5798 5797 5797 5797 5796 5795 5795 5794 5793 5793 5792 5791 5790 5788 5787 5786 5784 5783 5782 5781 5779 5779 5779 5778 5778 5779 5779 5779 5779 5779 5779 5779 5779 5779 5779 5779
5792 5792 5791 5790 5790 5789 5789 5788 5788 5787 5786 5785 5784 5783 5782 5781 5779 5778 5777 5776 5775 5773 5772 5771 5771 5771 5771 5771 5771 5771 5771 5771 5771 5771 5771 5771 5771 5771
5785 5784 5784 5783 5783 5782 5781 5780 5780 5780 5778 5777 5777 5775 5774 5773 5772 5770 5769 5768 5766 5766 5765 5764 5763 5763 5763 5763 5763 5763 5763 5763 5763 5763 5763 5762 5762 5762
5777 5777 5776 5776 5775 5774 5773 5773 5772 5771 5770 5770 5769 5768 5766 5765 5764 5762 5761 5760 5759 5758 5757 5756 5755 5755 5755 5755 5755 5755 5755 5755 5755 5755 5754 5754 5754 5754
5770 5769 5769 5768 5767 5767 5766 5765 5764 5763 5762 5761 5761 5760 5759 5757 5756 5755 5754 5752 5751 5750 5749 5748 5748 5747 5747 5747 5747 5747 5747 5746 5746 5746 5746 5745 5745 5745
5762 5762 5761 5760 5760 5759 5758 5757 5756 5755 5754 5753 5752 5751 5751 5749 5748 5747 5746 5745 5744 5743 5742 5741 5740 5739 5739 5739 5739 5739 5738 5737 5737 5737 5737 5737 5737 5736
5756 5755 5754 5753 5752 5752 5751 5750 5748 5747 5746 5745 5744 5744 5743 5742 5741 5740 5739 5737 5736 5735 5734 5733 5732 5731 5730 5730 5730 5730 5730 5729 5729 5729 5728 5728 5728 5728
5749 5748 5747 5746 5745 5744 5743 5742 5741 5740 5738 5737 5737 5736 5735 5734 5733 5732 5731 5729 5728 5727 5727 5725 5724 5723 5722 5722 5721 5721 5721 5720 5720 5720 5720 5720 5720 5719
5741 5741 5740 5739 5738 5737 5736 5735 5733 5732 5731 5730 5729 5728 5727 5726 5725 5724 5722 5721 5720 5719 5718 5717 5716 5715 5715 5714 5713 5713 5712 5712 5712 5712 5712 5712 5711 5710
5735 5734 5732 5731 5730 5729 5728 5727 5725 5724 5723 5722 5721 5721 5720 5718 5717 5716 5715 5714 5712 5711 5710 5708 5708 5707 5707 5706 5706 5705 5704 5704 5703 5703 5703 5703 5702 5702
5727 5726 5725 5724 5723 5722 5720 5719 5718 5717 5715 5714 5713 5713 5712 5711 5709 5708 5707 5706 5704 5703 5702 5700 5699 5698 5698 5698 5697 5697 5696 5695 5695 5694 5694 5694 5693 5692
5719 5718 5718 5717 5715 5714 5713 5712 5710 5709 5708 5706 5706 5705 5704 5703 5701 5700 5699 5697 5696 5695 5693 5692 5691 5689 5689 5688 5688 5688 5687 5686 5686 5685 5685 5685 5684 5683
5712 5712 5711 5709 5708 5707 5705 5704 5703 5701 5700 5699 5698 5697 5696 5695 5694 5692 5690 5689 5688 5687 5685 5684 5682 5681 5680 5679 5679 5678 5678 5677 5676 5675 5675 5675 5674 5674
5705 5704 5704 5703 5701 5700 5699 5697 5696 5695 5693 5692 5691 5690 5688 5687 5686 5684 5682 5681 5680 5678 5677 5676 5674 5672 5671 5670 5669 5669 5668 5668 5667 5667 5666 5665 5665 5665